Other Public Products
Issued by NWS Grand Forks, ND

Home | Current Version | Previous Version | Text Only | Print | Product List | Glossary Off
Versions: 1 2 3 4 5 6 7 8 9 10 11 12 13 14 15 16 17 18 19 20 21 22 23 24 25 26 27 28 29 30 31 32 33 34 35 36 37 38 39 40 41 42 43 44 45 46 47 48 49 50

000
FPUS83 KFGF 050010
OPUFGF
PRAIRIE TO PINES WEATHER ROUNDUP
NATIONAL WEATHER SERVICE EASTERN NORTH DAKOTA/GRAND FORKS ND
600 PM CST WED MAR 04 2015

 **SATELLITE DATA USED TO AUGMENT SKY COVER AT AUTOMATED STATIONS**
 *****  WEATHER ACROSS EASTERN NORTH DAKOTA  *****

CITY           SKY/WX    TMP DP  RH WIND       PRES   REMARKS
GRAND FORKS    PTCLDY     1 -10  60 NW7       30.37R WCI -12
6HR MIN TEMP:   1; 6HR MAX TEMP:   4;

GRAND FORKS AF CLEAR      0 -12  57 N9        30.36R WCI -15
GRAND CITY NWS   N/A      0 N/A N/A N6          N/A  WCI -12
BUXTON         NOT AVBL
DEVILS LAKE    CLEAR     -2 -15  55 W12       30.32S WCI -20
6HR MIN TEMP:  -6; 6HR MAX TEMP:   0;

FARGO          PTCLDY     3  -8  60 NW13      30.37S WCI -14
6HR MIN TEMP:   3; 6HR MAX TEMP:   7;

WAHPETON ARPT  PTCLDY     3  -8  60 NW10      30.37R WCI -12
$$

 *****  WEATHER ACROSS CENTRAL AND WESTERN NORTH DAKOTA  *****

CITY           SKY/WX    TMP DP  RH WIND       PRES   REMARKS
JAMESTOWN      CLEAR      0 -11  59 NW13      30.33R WCI -18
6HR MIN TEMP:  -2; 6HR MAX TEMP:   2; 6HR PCP: TRACE;

BISMARCK       CLEAR      5 -10  50 NW7       30.34S WCI  -7
6HR MIN TEMP:   0; 6HR MAX TEMP:   7;

MINOT          CLEAR     -1 -13  56 W9        30.31F WCI -16
6HR MIN TEMP:  -4; 6HR MAX TEMP:   0;

MINOT AFB      CLEAR     -1 -10  65 W8        30.31F WCI -16
6HR MIN TEMP:  -5; 6HR MAX TEMP:  -1;

GARRISON         N/A     -1 -10  65 NW7       30.30F WCI -14
6HR MIN TEMP:  -5; 6HR MAX TEMP:   0;

WILLISTON        N/A      7  -9  48 MISG      30.28F
6HR MIN TEMP:  -3; 6HR MAX TEMP:   7;

DICKINSON      CLEAR     11  -9  40 NW8       30.20S WCI  -1
6HR MIN TEMP:   3; 6HR MAX TEMP:  12;

HETTINGER      CLEAR     12  -8  40 NW14      30.22F WCI  -3
6HR MIN TEMP:   6; 6HR MAX TEMP:  13;

$$

 *****  OTHER OBSERVATIONS NORTHEAST NORTH DAKOTA  *****

CITY           SKY/WX    TMP DP  RH WIND       PRES   REMARKS
WALHALLA       HAZE       0 -11  60 NW9       30.35S VSB 1   WCI -16
LANGDON        NOT AVBL
CAVALIER       FAIR       0 -11  60 W10       30.36R WCI -17
GRAFTON        NOT AVBL
CANDO          FAIR      -4 N/A N/A W15       30.32S WCI -25
FORT TOTTEN    NOT AVBL
ROLLA          FAIR      -2 -13  60 W9        30.26S WCI -18
RUGBY          FAIR      -4 -13  65 NW9       30.32S WCI -20
 ***** THE ABOVE OBSERVATIONS ARE NON NWS ARE NOT QUALITY
        CONTROLLED AND MAY MIS-REPORT RAIN FOR SNOW...
$$

 *****  OTHER OBSERVATIONS SOUTHEAST NORTH DAKOTA *****

CITY           SKY/WX    TMP DP  RH WIND       PRES   REMARKS
COOPERSTOWN    NOT AVBL
VALLEY CITY    FAIR       0  -9  65 NW13      30.34R WCI -18
OAKES            N/A      0  -9  65 NW10      30.36S WCI -17
GWINNER        PTCLDY     5  -8  56 NW13      30.37S WCI -12
SHEYENNE NWR     N/A      2  -6  68 NW8       29.95S WCI -12
BUFFALO        NOT AVBL
WYNDMERE       NOT AVBL
 ***** THE ABOVE OBSERVATIONS ARE NON NWS ARE NOT QUALITY
       CONTROLLED AND MAY MIS-REPORT RAIN FOR SNOW...
$$

  *****  WEATHER ACROSS NORTHERN MINNESOTA  *****

CITY           SKY/WX    TMP DP  RH WIND       PRES   REMARKS
FLAG ISLAND    CLEAR      0 -13  55 NW13      30.24R WCI -18
WARROAD        CLEAR      0 -11  60 W7        30.27R WCI -13
ROSEAU         CLEAR     -2 -11  65 W10G16    30.29R WCI -19
HALLOCK        NOT AVBL
THF RVR FALLS  CLEAR     -2 -17  50 NW10      30.32R WCI -19
6HR MIN TEMP:  -4; 6HR MAX TEMP:   0;

HALSTAD        NOT AVBL
FOSSTON        PTCLDY    -6 -13  71 NW10      30.31R WCI -23
BAUDETTE       CLEAR     -1 -12  59 W10       30.23R WCI -17
6HR MIN TEMP:  -4; 6HR MAX TEMP:   1;

WASKISH        CLEAR     -2 -11  65 W7        30.27R WCI -16
CROOKSTON      CLEAR      0  -6  78 N10       30.37R WCI -17
$$
  *****  WEATHER ACROSS CENTRAL AND WEST MINNESOTA  *****

CITY           SKY/WX    TMP DP  RH WIND       PRES   REMARKS
BEMIDJI        PTCLDY    -5 -14  64 NW13      30.27R WCI -24
PARK RAPIDS    PTCLDY    -2 -13  59 NW13      30.25R WCI -20
6HR MIN TEMP:  -2; 6HR MAX TEMP:   2; 6HR PCP: TRACE;

WADENA         PTCLDY     0  -9  65 NW10      30.27S HAZE    WCI -17
DETROIT LAKES  MOCLDY     1  -8  66 NW16      30.30R WCI -18
MOORHEAD       PTCLDY     3  -6  66 NW14      30.37R WCI -15
FERGUS FALLS   CLEAR      1  -9  60 NW15      30.38R WCI -18
ELBOW LAKE     FAIR       0  -6  77 NW12      30.32S WCI -18
6HR MIN TEMP:   0; 6HR MAX TEMP:   2;

MORRIS MN      CLEAR      1  -9  60 NW15      30.34R WCI -18
STAPLES        CLEAR     -2 -11  65 NW8       30.28R WCI -17
WHEATON        CLEAR      0  -9  65 NW10      30.39R WCI -17
$$
  *****  WEATHER ELSEWHERE ACROSS MINNESOTA  *****

CITY           SKY/WX    TMP DP  RH WIND       PRES   REMARKS
DULUTH         CLEAR      2 -15  45 NW14G21   30.17R WCI -16
6HR MIN TEMP:   1; 6HR MAX TEMP:   3;

INTRNTL FALLS  CLEAR     -2 -15  54 W7        30.23R WCI -15
6HR MIN TEMP:  -3; 6HR MAX TEMP:   2;

ELY            CLEAR      0 -15  50 NW6       30.16R WCI -12
CLOQUET        CLEAR      1 -17  42 NW12G17   30.20R WCI -15
BRAINERD       PTCLDY     0 -14  51 NW13      30.27R WCI -18
6HR MIN TEMP:   0; 6HR MAX TEMP:   3;

HIBBING        CLEAR      0 -15  49 NW14      30.20R WCI -19
6HR MIN TEMP:  -3; 6HR MAX TEMP:   3;

ALEXANDRIA     CLEAR     -2 -11  65 NW12      30.29R WCI -20
6HR MIN TEMP:  -2; 6HR MAX TEMP:   2; 6HR PCP: TRACE;

SAINT CLOUD    CLEAR      1 -12  54 NW12      30.30R WCI -16
6HR MIN TEMP:   1; 6HR MAX TEMP:   6;

MINNEAPOLIS    PTCLDY     5  -8  55 NW13      30.30R WCI -12
6HR MIN TEMP:   5; 6HR MAX TEMP:  12;

$$

  *****  WEATHER ACROSS SOUTH DAKOTA  *****

CITY           SKY/WX    TMP DP  RH WIND       PRES   REMARKS
SIOUX FALLS    PTCLDY     5  -6  60 NW14      30.35R WCI -12
6HR MIN TEMP:   5; 6HR MAX TEMP:  12; 6HR PCP: TRACE;

BROOKINGS      NOT AVBL
WATERTOWN      CLEAR     -1 -12  59 NW16      30.30S WCI -21
6HR MIN TEMP:  -1; 6HR MAX TEMP:   3; 6HR PCP: TRACE;

HURON          CLEAR      6  -6  57 N13       30.38R WCI -10
6HR MIN TEMP:   6; 6HR MAX TEMP:   9; 6HR PCP: TRACE;

SISSETON       NOT AVBL
ABERDEEN       CLEAR      2 -12  52 N13       30.39R WCI -15
6HR MIN TEMP:   2; 6HR MAX TEMP:   4;

MITCHELL       CLEAR      9  -4  55 N12       30.39R WCI  -6
PIERRE         CLEAR     13  -6  42 N12       30.32R WCI  -1
6HR MIN TEMP:   9; 6HR MAX TEMP:  14;

MOBRIDGE       CLEAR     10  -7  46 N8        30.30R WCI  -2
RAPID CITY     CLEAR     15  -1  49 N17       30.20S WCI  -1
6HR MIN TEMP:  14; 6HR MAX TEMP:  17;

$$

  *****  SOME WEATHER IN NEARBY STATES *****

CITY           SKY/WX    TMP DP  RH WIND       PRES   REMARKS
GLASGOW MT     CLEAR     17  -5  37 S3        30.17F
6HR MIN TEMP:   7; 6HR MAX TEMP:  19;

GREAT FALLS MT SUNNY     35  10  35 SW21G28   29.99F WCI  24
6HR MIN TEMP:  24; 6HR MAX TEMP:  36;

CHEYENNE WY    CLEAR     18  -5  36 NW10      30.06R WCI   6
6HR MIN TEMP:  13; 6HR MAX TEMP:  20;

SCOTTSBLUFF NE CLEAR     25   1  35 NW15      30.17R WCI  13
6HR MIN TEMP:  23; 6HR MAX TEMP:  27;

OMAHA NE       PTCLDY    23  -2  33 N16       30.34R WCI  10
6HR MIN TEMP:  23; 6HR MAX TEMP:  32;

DES MOINES IA  PTCLDY    22   1  40 NW18G25   30.29R WCI   7
6HR MIN TEMP:  22; 6HR MAX TEMP:  30;

DAVENPORT IA   CLEAR     14   3  61 NW8       30.27S WCI   3
6HR MIN TEMP:  13; 6HR MAX TEMP:  17;

CHICAGO IL     MOCLDY    17  -2  43 NW13      30.22R WCI   4
6HR MIN TEMP:  17; 6HR MAX TEMP:  21;

EAU CLAIRE WI  CLEAR      7 -11  43 NW10      30.23R WCI  -8
6HR MIN TEMP:   7; 6HR MAX TEMP:  11;

LA CROSSE WI   PTCLDY    12  -5  46 W13       30.27R WCI  -3
6HR MIN TEMP:  12; 6HR MAX TEMP:  18;

$$

  *****  SOME NATIONAL WEATHER *****

CITY           SKY/WX    TMP DP  RH WIND       PRES   REMARKS


USA.gov is the U.S. government's official web portal to all federal, state and local government web resources and services.